Regional Weather Roundup
Issued by NWS

Home | Current Version | Previous Version | Graphics & Text | Print | Product List | Glossary On
Versions: 1 2 3 4 5 6 7 8 9 10 11 12 13 14 15 16 17 18 19 20 21 22 23 24 25 26 27 28 29 30 31 32 33 34 35 36 37 38 39 40 41 42 43 44 45 46 47 48 49 50
862
ASUS44 KLIX 210710
RWRLA
LOUISIANA WEATHER ROUNDUP
NATIONAL WEATHER SERVICE NEW ORLEANS LA
200 AM CDT THU AUG 21 2014

NOTE: "FAIR" INDICATES FEW OR NO CLOUDS BELOW 12,000 FEET WITH NO
      SIGNIFICANT WEATHER AND/OR OBSTRUCTIONS TO VISIBILITY.
      SKY/WX - SKY CONDITION AND SIGNIFICANT WEATHER.
      TMP - AIR TEMPERATURE.    DP   - DEWPOINT TEMPERATURE.
      RH  - RELATIVE HUMIDITY.  PRES - PRESSURE.
      HX  - HEAT INDEX.         WCI  - WIND CHILL INDEX.

*  THESE STATIONS ARE NOT NWS OR FAA STATIONS AND ARE NOT UNDER
   NWS QUALITY CONTROL.

LAZ040-048-061>063-065-066-069-210800-
SOUTHEAST LOUISIANA

CITY           SKY/WX    TMP DP  RH WIND       PRES   REMARKS
N.O. AUDUBON   NOT AVBL
N.O. INTL ARPT MOCLDY    78  73  84 SE5       30.08S
N.O. LAKEFRONT PTCLDY    79  73  82 E5        30.08F
N.O. DOWNTOWN* FAIR      81  70  69 SE3       30.09S
SLIDELL        CLEAR     76  73  91 CALM      30.08S
BATON ROUGE    MOCLDY    75  72  90 NE3       30.08S
BOOTHVILLE     CLEAR     83  76  79 S5        30.09S
BELLE CHASSE   PTCLDY    76  72  87 CALM      30.08S
BOGALUSA*        N/A     75  72  88 CALM      30.10S
GALLIANO*      NOT AVBL
NEW ROADS*     FAIR      76  74  92 CALM      30.08S
GONZALES*      FAIR      73  73 100 CALM      30.08S
HAMMOND*       PTCLDY    73  70  88 CALM      30.10S
HOUMA*         MOCLDY    76  72  87 CALM      30.07S
PORT FOURCHON* SUNNY     86  77  74 S5        30.09S HX  97

$$

LAZ041-044-053-054-210800-
SOUTHWEST LOUISIANA

CITY           SKY/WX    TMP DP  RH WIND       PRES   REMARKS
LAKE CHARLES   MOCLDY    79  77  94 CALM      30.05S
LAFAYETTE      MOCLDY    78  75  90 CALM      30.06F
PATTERSON      PTCLDY   N/A N/A N/A MISG        N/A
SALT POINT       N/A     84  79  85 SE3       30.06S HX  96
NEW IBERIA     MOCLDY    78  74  87 E5        30.07F
CHENAULT AIRPK MOCLDY    76  74  91 E3        30.06F

$$

LAZ027-028-210800-
CENTRAL LOUISIANA

CITY           SKY/WX    TMP DP  RH WIND       PRES   REMARKS
FORT POLK      MOCLDY    74  72  93 SE6       30.06F
ALEXANDRIA INT PTCLDY    74  72  93 CALM      30.05S
ALEXANDRIA     PTCLDY    74  71  91 CALM      30.06F

$$

LAZ001-002-210800-
NORTHWEST LOUISIANA

CITY           SKY/WX    TMP DP  RH WIND       PRES   REMARKS
SHREVEPORT     PTCLDY    75  71  87 SE6       30.04S
BARKSDALE AFB  MOCLDY    73  71  92 SE7       30.05R
DTN SHREVEPORT PTCLDY    76  71  85 SE5       30.04S

$$

LAZ014-016-210800-
NORTHEAST LOUISIANA

CITY           SKY/WX    TMP DP  RH WIND       PRES   REMARKS
MONROE         CLEAR     74  70  87 CALM      30.07F
TALLULAH       PTCLDY    75  72  90 CALM      30.07S

$$




USA.gov is the U.S. government's official web portal to all federal, state and local government web resources and services.